Find Biomass

NORAD ID: 63772 Int'l Des: 2025-090 Owner: ESA Country: I-ESA operational
LEOCIRCULARRETROGRADESSO

現在のビュー

3D地球を読み込み中...

About Biomass

Biomass (NORAD 63772) is a satellite launched Apr 29, 2025 by ESA of I-ESA. It operates in LEO, CIRCULAR, RETROGRADE, SSO orbit with a mass of 1131.00 kg.

次回通過

Passes for default location (London). Set your location on the main map for personalized predictions.

高度履歴

Loading altitude history...

軌道要素

1 63772U 25090A 26194.49092709 .00000537 00000-0 10321-3 0 9998
2 63772 98.0750 21.4211 0001436 96.7848 263.3520 14.67536921 64547
Epoch: Jul 13, 2026 • Age: 15 hours

現在のステータス

高度 678.7 km
遠地点 / 近地点 N/A
速度 7.52 km/s
衛星直下点 62.22°N, 120.01°W
打ち上げ日 Apr 29, 2025
運用期間 1.2 years
タイプ other

技術仕様

分類 Payload
質量 1131.00 kg
乾燥質量 1099.00 kg
総質量 1131.00 kg
長さ 4.00 m
直径 2.00 m
スパン 12.00 m
形状 Box+pan+dish
製造者 ADSUK
バスタイプ Biomass
フェーズステータス In Orbit
所有者/国 ESA/I-ESA

Most Searched